When you browse on this site, cookies collect data to enhance your experience and personalize the content and advertising you see.
Visit our Privacy Policy to learn more. By continuing to use the site, you agree to this use of cookies and data.
  • In Austria
  • List of Countries
  • For 7 days
  • Water Temperature
  • Satellite Maps
  • Weather Map
  • News
  • Weather Widgets
  • user-avatar
    Login

    Hourly Weather Rangpur

    Today, 27 June, Thursday

    Time Temperature Precipitation Wind Pressure Humidity
    00:00 +28°C° 0 mm 4 mps 747 mmHg 93%
    01:00 +28°C° 2.8 mm 4 mps 747 mmHg 94%
    02:00 +28°C° 2.8 mm 3 mps 746 mmHg 94%
    03:00 +28°C° 2.8 mm 3 mps 745 mmHg 94%
    04:00 +28°C° 6.6 mm 3 mps 745 mmHg 94%
    05:00 +28°C° 6.6 mm 3 mps 745 mmHg 94%
    06:00 +28°C° 6.6 mm 3 mps 745 mmHg 94%
    07:00 +29°C° 1.6 mm 4 mps 745 mmHg 91%
    08:00 +30°C° 1.6 mm 5 mps 746 mmHg 88%
    09:00 +32°C° 1.6 mm 6 mps 746 mmHg 85%
    10:00 +32°C° 3.2 mm 6 mps 746 mmHg 83%
    11:00 +33°C° 3.2 mm 6 mps 746 mmHg 81%
    12:00 +33°C° 3.2 mm 6 mps 746 mmHg 80%
    13:00 +34°C° 2.4 mm 5 mps 746 mmHg 78%
    14:00 +34°C° 2.4 mm 5 mps 745 mmHg 77%
    15:00 +35°C° 2.4 mm 4 mps 744 mmHg 75%
    16:00 +34°C° 2.1 mm 4 mps 744 mmHg 78%
    17:00 +33°C° 2.1 mm 5 mps 743 mmHg 80%
    18:00 +32°C° 2.1 mm 5 mps 743 mmHg 82%
    19:00 +32°C° 1.5 mm 5 mps 743 mmHg 85%
    20:00 +30°C° 1.5 mm 4 mps 744 mmHg 87%
    21:00 +29°C° 1.5 mm 3 mps 745 mmHg 90%
    22:00 +29°C° 0.4 mm 4 mps 745 mmHg 91%
    23:00 +29°C° 0.4 mm 4 mps 745 mmHg 92%

    Tomorrow, 28 June, Friday

    Time Temperature Precipitation Wind Pressure Humidity
    00:00 +28°C° 0.4 mm 5 mps 745 mmHg 94%
    01:00 +29°C° 2.2 mm 4 mps 744 mmHg 94%
    02:00 +29°C° 2.2 mm 3 mps 744 mmHg 93%
    03:00 +29°C° 2.2 mm 3 mps 744 mmHg 93%
    04:00 +29°C° 1.2 mm 3 mps 744 mmHg 93%
    05:00 +29°C° 1.2 mm 3 mps 744 mmHg 93%
    06:00 +29°C° 1.2 mm 3 mps 744 mmHg 93%
    07:00 +30°C° 0.2 mm 3 mps 744 mmHg 89%
    08:00 +31°C° 0.2 mm 3 mps 745 mmHg 84%
    09:00 +33°C° 0.2 mm 3 mps 745 mmHg 80%
    10:00 +34°C° 0 mm 3 mps 745 mmHg 75%
    11:00 +36°C° 0 mm 3 mps 745 mmHg 70%
    12:00 +37°C° 0 mm 3 mps 745 mmHg 65%
    13:00 +37°C° 0.3 mm 4 mps 744 mmHg 64%
    14:00 +37°C° 0.3 mm 4 mps 744 mmHg 63%
    15:00 +38°C° 0.3 mm 4 mps 743 mmHg 62%
    16:00 +36°C° 0.4 mm 5 mps 743 mmHg 67%
    17:00 +35°C° 0.4 mm 5 mps 743 mmHg 72%
    18:00 +34°C° 0.4 mm 6 mps 742 mmHg 78%
    19:00 +33°C° 0.5 mm 6 mps 743 mmHg 81%
    20:00 +32°C° 0.5 mm 6 mps 744 mmHg 84%
    21:00 +30°C° 0.5 mm 6 mps 744 mmHg 87%
    22:00 +30°C° 1 mm 6 mps 745 mmHg 88%
    23:00 +29°C° 1 mm 6 mps 745 mmHg 90%

    Day after tomorrow, 29 June, Saturday

    Time Temperature Precipitation Wind Pressure Humidity
    00:00 +29°C° 1 mm 6 mps 745 mmHg 91%
    01:00 +28°C° 2.8 mm 6 mps 745 mmHg 92%
    02:00 +28°C° 2.8 mm 5 mps 745 mmHg 93%
    03:00 +28°C° 2.8 mm 5 mps 744 mmHg 94%
    04:00 +28°C° 2.1 mm 5 mps 744 mmHg 94%
    05:00 +28°C° 2.1 mm 5 mps 744 mmHg 93%
    06:00 +28°C° 2.1 mm 5 mps 744 mmHg 93%
    07:00 +28°C° 0.7 mm 5 mps 745 mmHg 92%
    08:00 +29°C° 0.7 mm 5 mps 745 mmHg 91%
    09:00 +29°C° 0.7 mm 5 mps 746 mmHg 90%
    10:00 +29°C° 0 mm 5 mps 745 mmHg 88%
    11:00 +30°C° 0 mm 5 mps 745 mmHg 86%
    12:00 +30°C° 0 mm 4 mps 745 mmHg 84%
    13:00 +33°C° 0 mm 4 mps 744 mmHg 81%
    14:00 +34°C° 0 mm 4 mps 744 mmHg 77%
    15:00 +35°C° 0 mm 4 mps 743 mmHg 74%
    16:00 +35°C° 0 mm 4 mps 743 mmHg 76%
    17:00 +34°C° 0 mm 3 mps 743 mmHg 77%
    18:00 +34°C° 0 mm 3 mps 743 mmHg 79%
    19:00 +34°C° 0.1 mm 3 mps 743 mmHg 81%
    20:00 +33°C° 0.1 mm 4 mps 744 mmHg 83%
    21:00 +32°C° 0.1 mm 4 mps 745 mmHg 85%
    22:00 +31°C° 4.6 mm 3 mps 745 mmHg 87%
    23:00 +30°C° 4.6 mm 3 mps 745 mmHg 90%

    30 June, Sunday

    Time Temperature Precipitation Wind Pressure Humidity
    00:00 +29°C° 4.6 mm 3 mps 745 mmHg 92%
    01:00 +29°C° 5.5 mm 3 mps 745 mmHg 93%
    02:00 +29°C° 5.5 mm 3 mps 745 mmHg 94%
    03:00 +29°C° 5.5 mm 3 mps 744 mmHg 95%
    04:00 +29°C° 4.4 mm 4 mps 745 mmHg 94%
    05:00 +28°C° 4.4 mm 5 mps 745 mmHg 93%
    06:00 +28°C° 4.4 mm 6 mps 745 mmHg 92%
    07:00 +28°C° 1.2 mm 5 mps 745 mmHg 89%
    08:00 +28°C° 1.2 mm 4 mps 746 mmHg 86%
    09:00 +28°C° 1.2 mm 3 mps 746 mmHg 84%
    10:00 +30°C° 0.2 mm 3 mps 746 mmHg 77%
    11:00 +33°C° 0.2 mm 3 mps 745 mmHg 70%
    12:00 +35°C° 0.2 mm 3 mps 745 mmHg 64%
    13:00 +36°C° 0 mm 2 mps 745 mmHg 62%
    14:00 +37°C° 0 mm 2 mps 744 mmHg 60%
    15:00 +37°C° 0 mm 2 mps 744 mmHg 58%
    16:00 +37°C° 0 mm 2 mps 743 mmHg 61%
    17:00 +37°C° 0 mm 2 mps 743 mmHg 64%
    18:00 +36°C° 0 mm 2 mps 743 mmHg 67%
    19:00 +35°C° 0.2 mm 2 mps 744 mmHg 71%
    20:00 +34°C° 0.2 mm 3 mps 744 mmHg 75%
    21:00 +31°C° 0.2 mm 3 mps 745 mmHg 78%
    22:00 +31°C° 0.3 mm 3 mps 745 mmHg 79%
    23:00 +31°C° 0.3 mm 3 mps 745 mmHg 80%

    1 July, Monday

    Time Temperature Precipitation Wind Pressure Humidity
    00:00 +31°C° 0.3 mm 2 mps 745 mmHg 81%
    01:00 +30°C° 2.4 mm 2 mps 745 mmHg 84%
    02:00 +30°C° 2.4 mm 2 mps 745 mmHg 86%
    03:00 +29°C° 2.4 mm 1 mps 744 mmHg 89%
    04:00 +29°C° 1.9 mm 1 mps 745 mmHg 90%
    05:00 +29°C° 1.9 mm 1 mps 745 mmHg 90%
    06:00 +30°C° 1.9 mm 1 mps 745 mmHg 91%
    07:00 +30°C° 1.4 mm 1 mps 746 mmHg 88%
    08:00 +31°C° 1.4 mm 2 mps 746 mmHg 84%
    09:00 +32°C° 1.4 mm 2 mps 747 mmHg 81%
    10:00 +31°C° 0.7 mm 2 mps 747 mmHg 82%
    11:00 +31°C° 0.7 mm 2 mps 747 mmHg 82%
    12:00 +31°C° 0.7 mm 2 mps 747 mmHg 83%
    13:00 +32°C° 0 mm 2 mps 746 mmHg 77%
    14:00 +34°C° 0 mm 2 mps 745 mmHg 71%
    15:00 +35°C° 0 mm 2 mps 745 mmHg 66%
    16:00 +35°C° 0 mm 2 mps 745 mmHg 68%
    17:00 +35°C° 0 mm 2 mps 745 mmHg 70%
    18:00 +35°C° 0 mm 2 mps 745 mmHg 73%
    19:00 +34°C° 0.1 mm 2 mps 745 mmHg 75%
    20:00 +32°C° 0.1 mm 2 mps 746 mmHg 77%
    21:00 +31°C° 0.1 mm 2 mps 746 mmHg 79%
    22:00 +31°C° 0.5 mm 2 mps 746 mmHg 80%
    23:00 +31°C° 0.5 mm 2 mps 747 mmHg 82%

    2 July, Tuesday

    Time Temperature Precipitation Wind Pressure Humidity
    00:00 +30°C° 0.5 mm 2 mps 747 mmHg 83%
    01:00 +30°C° 0.8 mm 2 mps 747 mmHg 84%
    02:00 +30°C° 0.8 mm 2 mps 746 mmHg 85%
    03:00 +30°C° 0.8 mm 2 mps 746 mmHg 87%
    04:00 +29°C° 0.8 mm 3 mps 746 mmHg 89%
    05:00 +29°C° 0.8 mm 4 mps 747 mmHg 90%
    06:00 +28°C° 0.8 mm 5 mps 747 mmHg 92%
    07:00 +29°C° 0.1 mm 5 mps 747 mmHg 88%
    08:00 +32°C° 0.1 mm 6 mps 748 mmHg 84%
    09:00 +33°C° 0.1 mm 6 mps 748 mmHg 79%
    10:00 +34°C° 0.1 mm 6 mps 748 mmHg 76%
    11:00 +34°C° 0.1 mm 6 mps 748 mmHg 72%
    12:00 +35°C° 0.1 mm 6 mps 747 mmHg 68%
    13:00 +36°C° 0.1 mm 5 mps 746 mmHg 67%
    14:00 +36°C° 0.1 mm 4 mps 745 mmHg 65%
    15:00 +37°C° 0.1 mm 4 mps 745 mmHg 64%
    16:00 +36°C° 0.4 mm 3 mps 745 mmHg 66%
    17:00 +36°C° 0.4 mm 3 mps 745 mmHg 69%
    18:00 +35°C° 0.4 mm 3 mps 745 mmHg 72%
    19:00 +34°C° 1.6 mm 3 mps 745 mmHg 75%
    20:00 +33°C° 1.6 mm 3 mps 746 mmHg 78%
    21:00 +31°C° 1.6 mm 3 mps 746 mmHg 80%
    22:00 +31°C° 1.1 mm 3 mps 747 mmHg 82%
    23:00 +32°C° 1.1 mm 4 mps 747 mmHg 83%
    Show more